Home > Time Zones > World Clock > Weather > U.S.A. > Nome > Past weeks

Flag for U.S.A. Weather past 2 weeks in Nome, Alaska, U.S.A.

Now
48 °F

Overcast.


Feels Like: 48 °F
Forecast: 44 / 66 °F
Wind: No wind

Location: Nome Airport

Current Time: Jul 4, 2015 at 4:00:48 AM

Latest Report: Jul 4, 2015 at 2:53 AM


Visibility: 10 mi

Pressure: 30.09 "Hg

Humidity: 89%

Dew point: 45 °F

Location of NomeLocation

Historic Weather in Nome — Graph

°F

Nome temperature yesterday

Maximum temperature yesterday: 50 °F (at 7:53 PM)
Minimum temperature yesterday: 44 °F (at 12:53 AM)
Average temperature yesterday: 46 °F

Past Weeks' High & Low Weather Summary

 TemperatureHumidityPressure
High78 °F (Jun 19, 8:53 PM)100% (Jun 21, 4:53 AM)30.10 "Hg (Jun 21, 4:53 AM)
Low42 °F (Jun 26, 3:53 AM)31% (Jun 19, 8:53 PM)29.63 "Hg (Jun 25, 9:57 PM)
Average50 °F83%29.91 "Hg
* Reported Jun 19 2:53 AM — Jul 4 2:53 AM, Nome, Weather by CustomWeather, © 2015

Note: Actual official high and low records may vary slightly from our data, if they occured in-between our weather recording intervals... More about our weather records

Advertising

Nome weather history for previous 24 hours

 ConditionsComfort  
Time TempWeatherWind HumidityBarometerVisibility
2:53 AM
Sat, Jul 4
48 °FOvercast.No wind89%30.09 "Hg10 mi
1:53 AM47 °FPartly sunny.No wind93%30.09 "Hg10 mi
1:04 AM48 °FOvercast.3 mph89%30.09 "Hg10 mi
12:53 AM49 °FMostly cloudy.No wind86%30.09 "Hg10 mi
11:53 PM
Fri, Jul 3
48 °FOvercast.No wind89%30.09 "Hg10 mi
10:53 PM48 °FOvercast.7 mph89%30.09 "Hg10 mi
9:53 PM49 °FOvercast.7 mph86%30.09 "Hg10 mi
8:53 PM49 °FOvercast.10 mph90%30.09 "Hg8 mi
7:53 PM50 °FOvercast.10 mph83%30.09 "Hg10 mi
6:53 PM48 °FOvercast.6 mph89%30.09 "Hg10 mi
5:53 PM47 °FOvercast.7 mph90%30.10 "Hg10 mi
4:53 PM47 °FOvercast.6 mph86%30.09 "Hg10 mi
3:53 PM47 °FOvercast.6 mph86%30.09 "Hg10 mi
3:00 PM46 °FOvercast.5 mph89%30.09 "Hg10 mi
1:53 PM46 °FMostly cloudy.6 mph86%30.09 "Hg10 mi
12:53 PM46 °FMostly cloudy.5 mph89%30.08 "Hg10 mi
11:53 AM46 °FCloudy.6 mph89%30.07 "Hg9 mi
10:54 AM45 °FMostly cloudy.7 mph93%30.06 "Hg7 mi
9:53 AM45 °FLow clouds.5 mph93%30.06 "Hg7 mi
8:53 AM45 °FOvercast.5 mph93%30.06 "Hg7 mi
7:53 AM44 °FMostly cloudy.5 mph96%30.06 "Hg7 mi
6:53 AM44 °FLow clouds.5 mph96%30.05 "Hg8 mi
6:00 AM44 °FLow clouds.5 mph96%30.05 "Hg10 mi
4:53 AM44 °FLow clouds.5 mph96%30.04 "Hg9 mi
Weather by CustomWeather, © 2015

See weather overviewHow to use our weather pages